Home   Weather   India   Bundi   Past weeks
Flag for India

Past Weather in Bundi, Rajasthan, India — Yesterday and Last 2 Weeks

Currently: 79 °F. Mostly cloudy. (Weather station: Jaipur / Sanganer, India). See more current weather

Past Weather in Bundi — Graph

°F

Bundi Temperature Yesterday

Maximum temperature yesterday: 90 °F (at 1:00 pm)
Minimum temperature yesterday: 77 °F (at 5:00 am)
Average temperature yesterday: 83 °F

High & Low Weather Summary for the Past Weeks

 TemperatureHumidityPressure
High97 °F (Jul 25, 3:30 pm)100% (Jul 28, 1:30 pm)29.62 "Hg (Jul 28, 1:30 pm)
Low77 °F (Jul 28, 10:30 am)50% (Jul 25, 4:00 pm)29.39 "Hg (Jul 22, 3:30 pm)
Average83 °F79%29.50 "Hg
* Reported Jul 18 11:30 am — Aug 2 11:30 am, Bundi. Weather by CustomWeather, © 2021

Note: Actual official high and low records may vary slightly from our data, if they occured in-between our weather recording intervals... More about our weather records

Bundi Weather History for the Previous 24 Hours

Scroll right to see more
 ConditionsComfort  
Time TempWeatherWind HumidityBarometerVisibility
11:30 am
Mon, Aug 2
77 °FDrizzle. Mostly cloudy.12 mph94%29.62 "Hg1 mi
11:00 am77 °FLight rain. Mostly cloudy.12 mph94%29.62 "Hg1 mi
10:30 am77 °FLight rain. Mostly cloudy.7 mph89%29.62 "Hg1 mi
10:00 am77 °FRain. Mostly cloudy.9 mph94%29.62 "Hg1 mi
9:30 am77 °FRain. Mostly cloudy.12 mph89%29.62 "Hg1 mi
9:00 am77 °FLight rain. Mostly cloudy.7 mph94%29.59 "Hg1 mi
8:30 am77 °FLight rain. More clouds than sun.7 mph94%29.59 "Hg1 mi
8:00 am77 °FLight rain. Mostly cloudy.9 mph89%29.59 "Hg1 mi
7:30 am79 °FLight rain. Mostly cloudy.12 mph84%29.56 "Hg1 mi
7:00 am79 °FPartly sunny.12 mph84%29.53 "Hg1 mi
6:30 am79 °FPartly sunny.12 mph84%29.53 "Hg1 mi
5:30 am79 °FWarm.12 mph84%29.50 "Hg1 mi
5:00 am79 °FFog.12 mph84%29.50 "Hg1 mi
4:30 am79 °FFog.12 mph84%29.50 "Hg1 mi
4:00 am79 °FFog.7 mph84%29.50 "Hg1 mi
3:30 am79 °FFog.7 mph84%29.50 "Hg1 mi
3:00 am79 °FFog.5 mph84%29.50 "Hg1 mi
2:30 am79 °FFog.10 mph84%29.50 "Hg1 mi
2:00 am79 °FFog.12 mph84%29.50 "Hg1 mi
1:30 am79 °FFog.6 mph84%29.50 "Hg1 mi
1:00 am79 °FMostly cloudy.9 mph84%29.53 "Hg1 mi
12:30 am79 °FMostly cloudy.7 mph84%29.53 "Hg1 mi
12:00 am79 °FFog.9 mph84%29.53 "Hg1 mi
11:30 pm
Sun, Aug 1
79 °FMostly cloudy.9 mph84%29.53 "Hg1 mi
11:00 pm79 °FMostly cloudy.12 mph84%29.53 "Hg1 mi
10:30 pm79 °FMostly cloudy.6 mph89%29.56 "Hg1 mi
10:00 pm79 °FMostly cloudy.13 mph89%29.53 "Hg1 mi
9:30 pm79 °FFog.10 mph89%29.56 "Hg1 mi
9:00 pm81 °FFog.13 mph84%29.53 "Hg1 mi
8:30 pm81 °FPassing clouds.12 mph84%29.53 "Hg1 mi
8:00 pm81 °FLight rain. Passing clouds.10 mph84%29.50 "Hg1 mi
7:30 pm81 °FPartly sunny.7 mph89%29.53 "Hg1 mi
7:00 pm81 °FPartly sunny.12 mph89%29.53 "Hg1 mi
6:30 pm84 °FBroken clouds.12 mph79%29.50 "Hg2 mi
6:00 pm86 °FBroken clouds.12 mph79%29.47 "Hg2 mi
5:30 pm88 °FBroken clouds.6 mph70%29.47 "Hg2 mi
5:00 pm88 °FBroken clouds.6 mph70%29.47 "Hg2 mi
4:30 pm90 °FBroken clouds.3 mph63%29.47 "Hg2 mi
4:00 pm90 °FBroken clouds.6 mph63%29.47 "Hg2 mi
3:30 pm90 °FBroken clouds.5 mph67%29.47 "Hg2 mi
3:00 pm90 °FBroken clouds.5 mph67%29.47 "Hg2 mi
2:30 pm90 °FBroken clouds.5 mph63%29.50 "Hg2 mi
2:00 pm90 °FScattered clouds.3 mph63%29.50 "Hg2 mi
1:30 pm90 °FScattered clouds.2 mph63%29.53 "Hg2 mi
1:00 pm90 °FScattered clouds.3 mph63%29.53 "Hg2 mi
12:00 pm88 °FScattered clouds.5 mph66%29.56 "Hg2 mi
Weather by CustomWeather, © 2021

See weather overview